Location: American Medical Response
(33.3472°N, 96.5511°W)
Time: 03:53:15
(UTC+00:00)

SJ 16-02 - Pass Details

Date: 10 July 2022
Orbit: 604 x 615 km, 75.0° (Epoch: 07 August)

Event Time Altitude Azimuth Distance (km) Brightness Sun altitude
Rises 04:55:09 0° 353° (N) 2,889 5.8 -29.9°
Reaches altitude 10° 04:57:32 10° 2° (N) 1,979 4.7 -30.1°
Enters shadow 04:59:50 26° 23° (NNE) 1,220 3.2 -30.3°
